DW4509 Weather Reports


Display with metric or nautical units.
time (UTC)temp
F
wind
direction
speed
MPH
gust
MPH
rain 1hr
in
rain 24hr
in
rain mn
in
humidity
%
barometer
mb
20260904101112 61 293 1.0 13.0 0.00 0.37 0.37 79 1009.8
20260904100036 61 257 2.0 13.0 0.00 0.37 0.37 78 1009.5
20260904095046 61 290 2.0 8.0 0.00 0.37 0.37 79 1009.5
20260904094056 60 187 1.0 7.0 0.00 0.37 0.37 81 1009.3
20260904093033 60 233 1.0 6.0 0.00 0.37 0.37 82 1009.2
20260904090844 58 338 0.0 11.0 0.00 0.37 0.37 84 1008.9
20260904085810 58 278 1.0 11.0 0.00 0.37 0.37 83 1008.9
20260904083640 60 193 2.0 8.0 0.05 0.37 0.37 85 1008.8
20260904082700 61 258 1.0 8.0 0.40 0.35 0.36 84 1008.7
20260904080522 61 260 1.0 6.0 0.00 0.30 0.30 83 1007.8
20260904075543 61 233 1.0 6.0 0.00 0.30 0.30 84 1008.0
20260904074511 61 285 1.0 10.0 0.00 0.30 0.30 85 1007.9
20260904072306 60 359 1.0 8.0 0.00 0.30 0.30 86 1007.7
20260904071259 60 245 1.0 8.0 0.00 0.30 0.30 86 1007.6
20260904070300 60 258 1.0 9.0 0.00 0.30 0.30 88 1007.5
20260904065258 60 269 1.0 9.0 0.00 0.30 0.30 89 1007.3
20260904064229 60 297 1.0 7.0 0.00 0.30 0.30 89 1007.1
20260904063208 60 74 1.0 7.0 0.00 0.30 0.30 89 1007.3
20260904062152 60 200 1.0 5.0 0.00 0.30 0.30 89 1007.1
20260904061133 60 252 0.0 6.0 0.00 0.30 0.30 90 1007.1
20260904060133 60 285 0.0 6.0 0.00 0.30 0.30 90 1006.6
20260904053931 60 274 0.0 4.0 0.00 0.30 0.30 91 1006.8
20260904052903 60 270 0.0 3.0 0.00 0.30 0.30 91 1006.8
20260904051844 60 156 0.0 0.0 0.00 0.30 0.30 91 1006.3
20260904050841 60 314 0.0 0.0 0.00 0.29 0.30 91 1006.2
20260904045817 60 103 0.0 0.0 0.00 0.29 0.29 91 1006.3
20260904044812 60 269 0.0 0.0 0.00 0.29 0.29 91 1006.6
20260904043821 60 85 0.0 0.0 0.00 0.29 0.29 91 1006.3
20260904042748 60 85 0.0 0.0 0.00 0.29 0.29 91 1006.2
20260904041813 60 303 0.0 1.0 0.00 0.29 0.29 90 1006.4
20260904040747 60 299 0.0 0.0 0.00 0.29 0.29 90 1006.4
20260904035732 60 165 0.0 1.0 0.00 0.29 0.29 90 1006.8
20260904034716 60 84 0.0 0.0 0.00 0.29 0.29 90 1006.4
20260904033712 60 51 0.0 0.0 0.00 0.29 0.29 90 1006.4
20260904032702 60 45 0.0 0.0 0.00 0.29 0.29 90 1006.6
20260904031700 60 84 0.0 0.0 0.00 0.29 0.29 90 1006.6
20260904030651 60 84 0.0 0.0 0.00 0.29 0.29 90 1006.6
20260904025651 60 75 0.0 0.0 0.03 0.29 0.29 90 1006.7
20260904023612 60 118 0.0 0.0 0.36 0.26 0.28 89 1007.4
20260904022615 60 357 0.0 0.0 0.15 0.24 0.24 89 1007.4
20260904021620 60 350 0.0 0.0 0.11 0.22 0.22 89 1007.6
20260904020638 60 14 0.0 0.0 0.11 0.20 0.21 89 1007.6
20260904015612 60 14 0.0 0.0 0.40 0.17 0.18 89 1007.7
20260904014624 60 258 0.0 0.0 0.14 0.14 0.14 88 1008.0
20260904013644 60 122 0.0 0.0 0.08 0.11 0.11 88 1007.9
20260904012701 60 245 0.0 0.0 0.07 0.09 0.10 88 1008.1
20260904011654 60 271 0.0 0.0 0.12 0.08 0.08 87 1008.2
20260904010631 61 129 0.0 0.0 0.04 0.06 0.06 87 1008.3
20260904005609 61 308 0.0 1.0 0.06 0.05 0.05 86 1008.4
20260904004612 61 30 0.0 0.0 0.18 0.04 0.04 85 1008.7
20260904003628 61 56 0.0 5.0 0.00 0.00 0.01 85 1009.0
20260904002554 61 133 0.0 6.0 0.00 0.00 0.00 84 1008.6
20260904000434 62 26 0.0 5.0 0.00 0.00 0.00 84 1009.7
20260903235449 62 316 0.0 2.0 0.00 0.00 0.00 83 1009.8
20260903234452 63 281 0.0 6.0 0.00 0.00 0.00 82 1010.2
20260903233504 63 21 0.0 6.0 0.00 0.00 0.00 81 1010.1
20260903232450 63 242 0.0 1.0 0.00 0.00 0.00 80 1010.2
20260903224149 65 79 0.0 4.0 0.00 0.00 0.00 73 1010.8
20260903223141 66 109 0.0 6.0 0.00 0.00 0.00 73 1010.8
20260903222124 66 212 0.0 6.0 0.00 0.00 0.00 73 1010.9
20260903220029 66 324 0.0 4.0 0.00 0.00 0.00 71 1010.8
20260903215026 66 345 0.0 3.0 0.00 0.00 0.00 70 1011.0
20260903212909 67 315 0.0 4.0 0.00 0.00 0.00 68 1011.4
20260903210723 67 300 0.0 3.0 0.00 0.00 0.00 67 1011.7
20260903205730 67 37 0.0 3.0 0.00 0.00 0.00 67 1011.7
20260903204656 67 65 0.0 2.0 0.00 0.00 0.00 67 1011.9
20260903203642 67 57 0.0 5.0 0.00 0.00 0.00 66 1011.9
20260903202615 67 153 0.0 5.0 0.00 0.00 0.00 66 1011.9
20260903200432 67 39 0.0 1.0 0.00 0.00 0.00 68 1012.0
20260903195417 67 140 0.0 1.0 0.00 0.00 0.00 68 1012.0
20260903194423 67 86 0.0 0.0 0.00 0.00 0.00 68 1012.2
20260903192238 68 316 0.0 2.0 0.00 0.00 0.00 67 1012.6
20260903191223 68 111 0.0 0.0 0.00 0.00 0.00 67 1012.9
20260903185135 69 153 0.0 3.0 0.00 0.00 0.00 66 1013.2
20260903184123 69 284 0.0 2.0 0.00 0.00 0.00 66 1012.8
20260903183048 69 74 0.0 3.0 0.00 0.00 0.00 66 1012.7
20260903182111 69 285 0.0 4.0 0.00 0.00 0.00 66 1013.0
20260903181121 70 263 0.0 4.0 0.00 0.00 0.00 65 1013.2
20260903174912 70 98 0.0 1.0 0.00 0.00 0.00 64 1013.3
20260903173930 71 295 0.0 4.0 0.00 0.00 0.00 64 1013.2
20260903172916 71 200 0.0 4.0 0.00 0.00 0.00 63 1013.0
20260903171934 71 275 1.0 5.0 0.00 0.00 0.00 63 1013.3
20260903170907 71 302 0.0 6.0 0.00 0.00 0.00 61 1013.1
20260903165927 72 250 0.0 7.0 0.00 0.00 0.00 60 1013.1
20260903164910 72 319 1.0 7.0 0.00 0.00 0.00 60 1013.2
20260903163911 72 316 1.0 7.0 0.00 0.00 0.00 58 1013.5
20260903162904 73 269 0.0 5.0 0.00 0.00 0.00 57 1013.9
20260903161900 73 260 1.0 7.0 0.00 0.00 0.00 59 1013.9
20260903160859 73 281 0.0 7.0 0.00 0.00 0.00 60 1013.8
20260903155858 73 272 1.0 10.0 0.00 0.00 0.00 59 1014.0
20260903154919 74 190 2.0 10.0 0.00 0.00 0.00 58 1013.9
20260903152815 73 217 2.0 8.0 0.00 0.00 0.00 58 1014.0
20260903151748 73 233 2.0 8.0 0.00 0.00 0.00 57 1014.1
20260903150741 73 296 1.0 7.0 0.00 0.00 0.00 58 1014.0
20260903145724 73 255 0.0 9.0 0.00 0.00 0.00 60 1014.0
20260903144721 73 254 1.0 9.0 0.00 0.00 0.00 60 1013.9
20260903143700 73 283 0.0 5.0 0.00 0.00 0.00 59 1013.8
20260903142711 73 250 1.0 0.0 0.00 0.00 0.00 62 1013.7
20260903140614 73 229 0.0 6.0 0.00 0.01 0.00 62 1013.8
20260903135615 73 317 0.0 6.0 0.00 0.01 0.00 62 1014.0
20260903134545 73 272 0.0 6.0 0.00 0.01 0.00 61 1014.3
20260903133547 73 274 0.0 4.0 0.00 0.01 0.00 62 1014.1
20260903131424 72 356 0.0 7.0 0.00 0.01 0.00 61 1014.3
20260903130355 72 60 0.0 7.0 0.00 0.01 0.00 61 1014.4
20260903125417 72 8 0.0 4.0 0.00 0.01 0.00 60 1014.6
20260903124359 73 91 0.0 5.0 0.00 0.01 0.00 59 1014.5
20260903122135 71 257 1.0 7.0 0.00 0.01 0.00 64 1014.8
20260903121118 71 273 0.0 7.0 0.00 0.01 0.00 66 1015.0
20260903120117 70 285 0.0 4.0 0.00 0.01 0.00 66 1015.0
20260903115103 70 297 1.0 6.0 0.00 0.01 0.00 66 1014.9
20260903114055 70 253 0.0 7.0 0.00 0.01 0.00 66 1014.8
20260903113045 69 129 1.0 7.0 0.00 0.02 0.00 65 1014.9
20260903112050 69 264 0.0 7.0 0.00 0.02 0.00 65 1014.9
20260903111113 69 295 1.0 7.0 0.00 0.02 0.00 65 1015.0
20260903110055 69 137 1.0 5.0 0.00 0.02 0.00 67 1014.9
20260903105117 69 277 1.0 9.0 0.00 0.02 0.00 67 1014.9